Change the Weather History Date:

Tuesday, October 8, 2013

  Actual Average (KMQI) Record (KMQI)
Temperature  
Mean Temperature 64 °F -  
Max Temperature 68 °F 71 °F 84 °F (1990)
Min Temperature 59 °F 59 °F 44 °F (1966)
Degree Days  
Heating Degree Days 2    
Growing Degree Days 14 (Base 50)    
Moisture  
Dew Point 59 °F    
Average Humidity 87    
Maximum Humidity 97    
Minimum Humidity 73    
Precipitation  
Precipitation 1.42 in - - ()
Sea Level Pressure  
Sea Level Pressure 30.07 in    
Wind  
Wind Speed 11 mph (NNE)    
Max Wind Speed 18 mph    
Max Gust Speed 28 mph    
Visibility 7 miles    
Events Rain    
Averages and records for this station are not official NWS values.
T = Trace of Precipitation, MM = Missing Value Source: NWS Daily Summary

Daily Weather History Graph

Daily Weather History Graph

Search for Another Location

Airport or City:

Trip Planner

Search our weather history database for the weather conditions in past years. The results will help you decide how hot, cold, wet, or windy it might be!

Date:

Astronomy

Oct. 08, 2013 Rise Set
Actual Time 7:03 AM EDT 6:36 PM EDT
Civil Twilight 6:38 AM EDT 7:01 PM EDT
Nautical Twilight 6:08 AM EDT 7:31 PM EDT
Astronomical Twilight 5:38 AM EDT 8:01 PM EDT
Moon 10:48 AM EDT (10/8) 9:17 PM EDT (10/8)
Length of Visible Light 12h 23m
Length of Day
11h 32m
Waxing Crescent, 16% of the Moon is Illuminated
Oct 8
Waxing Crescent
Oct 11
First Quarter
Oct 18
Full
Oct 26
Last Quarter
Nov 3
New

Hourly Weather History & Observations

Time (EDT) Temp. Dew Point Humidity Pressure Visibility Wind Dir Wind Speed Gust Speed Precip Events Conditions
12:35 AM 68.7 °F 67.5 °F 96% 29.94 in 5.0 mi North 5.8 mph - N/A   Overcast
12:55 AM 68.2 °F 66.9 °F 96% 29.95 in 5.0 mi North 3.5 mph - N/A   Drizzle
1:15 AM 68.0 °F 66.6 °F 95% 29.96 in 7.0 mi North 6.9 mph - N/A   Light Drizzle
1:35 AM 66.6 °F 65.3 °F 96% 29.96 in 1.0 mi North 10.4 mph 26.5 mph 0.34 in Rain Heavy Rain
1:55 AM 64.9 °F 63.9 °F 96% 29.98 in 1.2 mi NNE 11.5 mph 19.6 mph 0.66 in Rain Heavy Rain
2:15 AM 64.6 °F 63.5 °F 96% 29.99 in 1.2 mi North 15.0 mph 24.2 mph 0.20 in Rain Heavy Rain
2:35 AM 63.9 °F 62.8 °F 96% 29.99 in 1.2 mi North 10.4 mph 21.9 mph 0.48 in Rain Heavy Rain
2:55 AM 63.3 °F 62.2 °F 96% 29.99 in 1.8 mi NNE 10.4 mph 24.2 mph 0.60 in Rain Heavy Rain
3:15 AM 62.8 °F 61.7 °F 96% 29.98 in 3.0 mi North 8.1 mph 18.4 mph 0.04 in Rain Rain
3:35 AM 63.1 °F 62.2 °F 97% 29.98 in 4.0 mi North 9.2 mph 21.9 mph 0.05 in Rain Rain
3:55 AM 62.8 °F 61.7 °F 96% 29.98 in 5.0 mi North 12.7 mph 25.3 mph 0.06 in Rain Light Rain
4:15 AM 61.7 °F 60.4 °F 96% 30.00 in 5.0 mi North 11.5 mph 25.3 mph 0.01 in Rain Light Rain
4:35 AM 61.2 °F 59.9 °F 96% 30.01 in 5.0 mi North 8.1 mph 21.9 mph 0.02 in Rain Light Rain
4:55 AM 61.2 °F 59.7 °F 95% 30.02 in 5.0 mi North 10.4 mph 24.2 mph 0.03 in Rain Rain
5:15 AM 61.5 °F 60.1 °F 95% 30.02 in 7.0 mi North 8.1 mph 24.2 mph N/A   Drizzle
5:35 AM 61.9 °F 60.4 °F 95% 30.02 in 5.0 mi NNE 13.8 mph 25.3 mph N/A   Drizzle
5:55 AM 62.2 °F 60.6 °F 94% 30.03 in 7.0 mi NE 12.7 mph 20.7 mph N/A Rain Light Rain
6:15 AM 62.2 °F 60.4 °F 94% 30.03 in 7.0 mi NNE 12.7 mph 23.0 mph N/A   Drizzle
6:35 AM 61.7 °F 59.4 °F 92% 30.04 in 10.0 mi NNE 15.0 mph 27.6 mph N/A   Drizzle
6:55 AM 61.9 °F 59.0 °F 90% 30.05 in 10.0 mi NNE 15.0 mph 25.3 mph N/A   Drizzle
7:15 AM 61.7 °F 58.6 °F 90% 30.06 in 7.0 mi NNE 11.5 mph 23.0 mph N/A   Drizzle
7:35 AM 61.2 °F 58.5 °F 91% 30.07 in 5.0 mi NNE 13.8 mph 25.3 mph 0.01 in Rain Rain
7:55 AM 60.1 °F 57.6 °F 91% 30.08 in 7.0 mi NNE 10.4 mph 26.5 mph 0.01 in Rain Light Rain
8:15 AM 59.9 °F 56.8 °F 90% 30.09 in 7.0 mi NNE 12.7 mph 24.2 mph 0.01 in Rain Light Rain
8:35 AM 59.9 °F 57.0 °F 90% 30.10 in 7.0 mi NNE 11.5 mph 25.3 mph 0.01 in Rain Rain
8:55 AM 60.1 °F 56.5 °F 88% 30.10 in 7.0 mi NNE 16.1 mph 26.5 mph 0.02 in Rain Light Rain
9:15 AM 61.0 °F 56.5 °F 85% 30.10 in 10.0 mi NNE 15.0 mph 24.2 mph N/A   Light Drizzle
9:35 AM 61.7 °F 56.3 °F 82% 30.10 in 10.0 mi NE 11.5 mph 23.0 mph N/A   Overcast
9:55 AM 62.2 °F 55.9 °F 80% 30.11 in 10.0 mi NNE 12.7 mph 25.3 mph N/A   Light Drizzle
10:15 AM 62.6 °F 55.4 °F 77% 30.10 in 10.0 mi NNE 11.5 mph 27.6 mph N/A   Light Drizzle
10:35 AM 63.0 °F 54.7 °F 74% 30.11 in 10.0 mi NNE 9.2 mph 21.9 mph N/A   Overcast
10:55 AM 63.0 °F 54.7 °F 74% 30.10 in 10.0 mi NE 11.5 mph 25.3 mph N/A   Drizzle
11:15 AM 62.6 °F 55.0 °F 76% 30.10 in 10.0 mi NNE 13.8 mph 23.0 mph N/A   Light Drizzle
11:35 AM 63.3 °F 55.0 °F 74% 30.11 in 10.0 mi NNE 15.0 mph 24.2 mph N/A   Overcast
11:55 AM 63.7 °F 55.0 °F 73% 30.11 in 10.0 mi NE 13.8 mph 21.9 mph N/A   Overcast
12:15 PM 63.7 °F 54.9 °F 73% 30.11 in 10.0 mi NE 11.5 mph 23.0 mph N/A   Overcast
12:35 PM 63.7 °F 55.2 °F 74% 30.12 in 10.0 mi NNE 10.4 mph 25.3 mph N/A Rain Light Rain
12:55 PM 63.7 °F 55.9 °F 76% 30.11 in 10.0 mi NNE 11.5 mph 23.0 mph N/A   Light Drizzle
1:15 PM 63.5 °F 57.0 °F 79% 30.10 in 7.0 mi NE 8.1 mph 18.4 mph N/A Rain Rain
1:35 PM 63.0 °F 57.2 °F 81% 30.10 in 10.0 mi NNE 12.7 mph 21.9 mph N/A   Light Drizzle
1:55 PM 63.3 °F 57.0 °F 80% 30.09 in 10.0 mi NNE 10.4 mph 24.2 mph N/A   Light Drizzle
2:15 PM 63.5 °F 57.2 °F 80% 30.09 in 10.0 mi NE 11.5 mph 26.5 mph N/A   Light Drizzle
2:35 PM 63.5 °F 57.4 °F 80% 30.10 in 10.0 mi NE 11.5 mph 23.0 mph N/A Rain Light Rain
2:55 PM 63.5 °F 57.7 °F 81% 30.10 in 7.0 mi NE 9.2 mph 19.6 mph N/A Rain Rain
3:15 PM 63.0 °F 57.9 °F 84% 30.10 in 5.0 mi NE 9.2 mph 19.6 mph N/A Rain Light Rain
3:35 PM 62.6 °F 58.3 °F 86% 30.09 in 7.0 mi NNE 11.5 mph 19.6 mph 0.01 in Rain Light Rain
3:55 PM 62.4 °F 58.3 °F 86% 30.09 in 7.0 mi NE 8.1 mph 20.7 mph 0.01 in Rain Light Rain
4:15 PM 62.6 °F 58.3 °F 86% 30.09 in 7.0 mi NNE 12.7 mph 20.7 mph N/A Rain Rain
4:35 PM 62.8 °F 58.5 °F 86% 30.10 in 7.0 mi NNE 11.5 mph 18.4 mph 0.01 in Rain Rain
4:55 PM 63.0 °F 58.8 °F 86% 30.10 in 7.0 mi NNE 10.4 mph 19.6 mph 0.01 in   Drizzle
5:15 PM 63.1 °F 58.8 °F 86% 30.09 in 7.0 mi NE 11.5 mph 21.9 mph N/A Rain Light Rain
5:35 PM 63.5 °F 59.0 °F 85% 30.09 in 7.0 mi NE 11.5 mph 21.9 mph N/A Rain Rain
5:55 PM 63.7 °F 59.7 °F 87% 30.09 in 7.0 mi NNE 12.7 mph 21.9 mph N/A   Drizzle
6:15 PM 63.7 °F 60.6 °F 90% 30.08 in 7.0 mi NNE 12.7 mph 25.3 mph 0.01 in Rain Rain
6:35 PM 63.7 °F 61.2 °F 91% 30.08 in 7.0 mi NNE 12.7 mph 20.7 mph 0.01 in Rain Rain
6:55 PM 63.7 °F 61.5 °F 93% 30.09 in 5.0 mi NE 15.0 mph 23.0 mph 0.01 in Rain Light Rain
7:15 PM 63.5 °F 60.8 °F 91% 30.08 in 7.0 mi NE 18.4 mph 24.2 mph N/A Rain Rain
7:35 PM 63.3 °F 60.1 °F 89% 30.08 in 7.0 mi NE 12.7 mph 26.5 mph N/A   Drizzle
7:55 PM 63.0 °F 59.5 °F 89% 30.09 in 7.0 mi NE 17.3 mph 26.5 mph N/A   Light Drizzle
8:15 PM 63.3 °F 59.2 °F 86% 30.09 in 7.0 mi NE 16.1 mph 25.3 mph N/A   Light Drizzle
8:35 PM 63.5 °F 59.0 °F 85% 30.09 in 7.0 mi NNE 13.8 mph 25.3 mph N/A   Drizzle
8:55 PM 63.5 °F 58.8 °F 85% 30.10 in 7.0 mi NE 10.4 mph 27.6 mph N/A Rain Rain
9:15 PM 62.8 °F 59.0 °F 87% 30.11 in 5.0 mi NE 15.0 mph 23.0 mph N/A Rain Light Rain
9:35 PM 62.2 °F 58.3 °F 87% 30.12 in 7.0 mi NE 13.8 mph 25.3 mph N/A   Light Drizzle
9:55 PM 62.6 °F 57.6 °F 84% 30.12 in 7.0 mi NE 16.1 mph 23.0 mph N/A   Overcast
10:15 PM 62.4 °F 57.4 °F 84% 30.12 in 7.0 mi NE 13.8 mph 23.0 mph N/A   Drizzle
10:35 PM 62.2 °F 57.0 °F 83% 30.12 in 7.0 mi NE 13.8 mph 23.0 mph N/A Rain Light Rain
10:55 PM 62.2 °F 57.4 °F 84% 30.11 in 7.0 mi NE 9.2 mph 21.9 mph N/A Rain Light Rain
11:15 PM 62.4 °F 57.6 °F 84% 30.10 in 5.0 mi NE 13.8 mph 25.3 mph 0.01 in Rain Light Rain
11:35 PM 62.1 °F 57.9 °F 86% 30.09 in 7.0 mi NE 11.5 mph 24.2 mph 0.01 in Rain Light Rain
11:55 PM 62.2 °F 58.5 °F 87% 30.09 in 5.0 mi NNE 15.0 mph 24.2 mph 0.01 in Rain Rain